Helicity
105 97 138 155 147 93 82 73 88 93 107 94 91 108 119 114 110 124 123 123 110 99 86 78 85 96 109 124 137 155 159 168 197 159 143 114 111 119 126 112 103 117 135
104 116 126 157 144 100 78 88 88 109 106 105 114 120 111 104 99 90 103 68 81 78 84 83 90 87 88 119 144 152 155 163 142 148 144 146 123 118 114 89 90 83 99
134 93 94 139 134 101 83 112 108 108 104 106 118 116 108 99 79 72 63 52 51 82 73 73 79 79 91 119 124 120 111 101 103 116 126 110 88 92 89 89 86 82 68
69 43 87 107 120 115 98 140 124 113 113 138 124 117 106 108 81 66 67 68 53 76 64 69 73 92 91 96 83 54 46 47 54 96 64 80 80 77 82 78 53 50 46
93 82 114 89 104 145 96 121 128 138 145 133 138 105 124 109 85 84 94 64 63 85 63 74 91 100 95 54 23 27 10 32 34 62 92 92 66 60 48 43 50 50 52
69 120 108 87 56 88 100 114 105 126 131 140 131 132 114 111 116 117 108 77 69 77 75 99 100 90 85 37 34 24 24 13 8 29 51 100 95 86 76 63 56 71 62
92 81 78 106 113 104 102 104 205 294 192 177 125 88 137 124 133 126 102 88 77 90 103 94 96 97 66 26 81 89 71 43 79 59 76 85 64 57 51 51 59 67 66
92 94 124 116 152 208 239 240 272 264 452 49 29 94 107 155 135 122 104 122 111 141 120 87 100 98 63 63 101 127 106 108 105 94 70 57 47 52 61 54 63 68 70
89 113 101 115 180 223 245 213 187 148 264 138 -57 195 53 185 182 156 140 159 160 148 105 83 112 119 89 83 142 174 165 172 118 69 61 37 46 57 59 63 60 74 75
109 122 129 181 146 128 130 150 160 167 161 97 61 90 35 145 111 149 170 181 166 138 104 100 117 124 105 108 134 142 130 122 69 70 74 47 43 50 64 74 81 68 69
94 92 156 187 116 90 98 91 124 24 9 17 35 108 129 110 174 109 173 185 175 134 106 103 116 124 108 82 68 -15 -23 29 87 115 70 50 42 52 71 74 62 54 55
95 75 97 126 148 71 85 83 48 29 55 75 76 -14 91 151 116 68 109 152 147 147 106 107 119 100 103 61 2 15 29 53 134 81 46 41 56 55 63 55 49 51 55
107 98 68 113 117 151 125 62 50 69 112 136 73 110 144 232 210 194 170 185 162 153 124 125 114 83 97 66 29 45 77 129 80 51 38 53 50 49 41 48 54 44 43
161 115 76 68 89 117 123 65 50 82 112 137 171 214 243 259 180 202 150 170 141 133 110 110 66 70 72 48 73 42 -18 162 120 87 41 56 48 41 47 40 44 36 29
156 165 96 91 82 137 137 121 69 58 81 110 179 210 300 298 278 231 198 259 168 114 104 82 48 98 71 83 81 49 49 162 88 85 58 66 54 39 35 35 29 24 20
158 182 146 114 103 94 101 105 99 76 69 93 163 202 213 256 320 298 389 168 119 100 99 67 86 91 98 65 79 61 89 98 61 71 76 56 46 33 26 28 26 19 13
139 238 179 182 132 95 141 150 137 136 143 144 158 171 224 284 423 384 276 192 152 90 69 109 131 107 113 77 67 86 92 90 51 77 60 46 27 26 24 23 17 14 14
83 175 246 212 143 160 197 170 156 165 165 188 193 162 319 395 393 316 369 277 268 93 169 180 138 105 85 90 79 78 80 83 102 72 46 53 35 20 17 31 19 13 16
176 217 283 191 164 212 237 200 197 213 241 255 340 347 452 572 599 640 381 197 100 220 232 213 117 113 100 100 83 51 76 62 76 38 79 58 42 59 47 33 37 35 37
190 140 275 218 203 256 247 195 158 187 237 334 469 625 790 716 553 368 446 181 228 268 249 205 195 160 131 68 43 55 52 74 47 36 81 59 33 102 86 81 62 57 61
239 253 275 267 218 204 138 132 119 151 198 226 340 382 457 564 500 358 304 244 237 217 171 180 180 132 130 96 52 142 77 77 45 60 68 68 90 108 101 161 133 102 86
249 205 264 215 179 145 111 146 135 155 143 95 103 147 353 464 379 274 351 294 210 139 162 164 174 130 85 46 172 144 117 82 65 57 57 70 60 91 75 127 146 135 128
222 182 201 181 158 160 163 184 186 160 194 246 244 283 270 197 370 319 239 211 181 106 109 95 105 107 81 153 138 100 115 77 85 36 45 77 75 76 85 85 119 156 133
179 174 197 178 157 184 214 200 279 289 268 208 271 181 139 164 163 110 48 -13 -6 -9 19 19 -13 16 106 122 93 96 135 100 129 81 38 19 59 86 87 122 155 126 120
174 197 192 157 153 176 228 235 261 270 242 259 190 129 149 44 5 48 77 -2 -53 -36 -7 20 26 -29 60 112 45 72 54 75 142 96 85 70 66 62 92 143 154 159 134
217 215 221 169 142 163 242 268 249 304 328 332 203 182 140 71 -9 68 86 45 -7 23 14 55 22 24 42 125 64 41 94 118 117 130 108 119 114 117 121 119 155 145 174
Wind_Speed
29 26 25 17 9 5 4 3 2 1 2 1 3 5 7 9 8 14 14 14 15 17 20 19 14 12 12 16 18 23 26 28 33 37 38 40 40 41 43 43 42 40 42
25 24 22 16 10 5 8 5 3 1 1 2 1 3 5 8 8 8 14 10 14 18 20 18 16 14 15 19 21 26 30 33 35 37 36 37 39 41 42 42 43 43 43
28 24 22 15 8 4 5 3 2 3 5 4 5 4 5 6 5 3 10 14 14 15 16 16 14 17 18 21 26 29 32 34 33 33 31 31 34 38 40 41 41 43 44
27 23 20 17 8 7 2 3 4 7 9 10 9 9 7 8 6 4 5 11 13 14 15 15 15 18 19 22 26 31 35 34 34 32 33 33 33 34 36 39 41 43 44
30 31 21 16 11 8 5 6 8 12 14 15 15 13 12 11 8 7 4 6 11 13 13 13 13 13 20 24 28 27 26 23 27 29 28 28 30 33 36 37 39 41 41
33 34 20 17 14 10 9 9 12 17 22 22 22 21 17 15 11 10 7 7 9 10 7 7 10 12 19 18 16 19 18 17 26 29 27 26 27 33 35 35 36 40 41
30 27 24 22 19 16 15 11 22 27 33 36 47 29 22 18 12 13 13 11 13 8 6 4 8 8 13 14 13 10 9 13 19 25 26 25 27 30 32 34 36 39 40
29 28 27 23 21 16 13 13 16 23 46 61 70 65 26 20 16 16 15 11 12 8 5 5 7 10 12 10 9 7 12 12 20 24 26 25 29 30 31 32 35 38 39
31 26 25 20 19 11 8 14 20 23 19 40 72 62 36 23 20 17 12 12 12 8 5 6 8 10 11 11 3 7 11 16 22 24 26 28 31 29 29 30 34 34 36
34 32 26 21 14 8 7 9 20 23 12 40 43 72 30 18 20 17 14 13 11 7 8 9 9 9 10 7 2 8 13 17 23 24 26 26 31 31 27 29 33 30 33
34 28 25 21 13 11 10 10 15 8 10 28 47 49 19 14 15 14 16 12 13 11 11 12 12 10 10 6 6 14 11 15 21 22 24 28 29 28 26 28 29 27 30
34 25 21 18 16 12 13 14 10 21 29 16 25 69 17 10 9 14 14 15 13 14 12 14 13 12 10 8 4 5 10 15 20 22 21 26 28 26 25 25 25 25 25
30 23 16 17 13 10 12 14 15 17 14 3 17 10 11 10 15 8 18 15 15 14 13 17 15 12 12 10 3 5 14 14 18 20 19 23 27 29 26 24 24 21 22
29 22 16 10 13 10 11 8 7 16 14 4 7 12 13 11 14 18 16 16 17 19 17 18 18 13 14 11 3 9 5 13 17 18 18 21 22 23 24 21 20 18 18
26 20 17 12 10 14 14 16 19 8 15 13 9 14 15 13 18 16 16 23 24 19 19 22 18 16 15 11 13 2 11 15 16 15 14 18 19 21 21 17 14 13 14
23 18 18 16 13 11 9 12 20 21 17 10 12 16 19 20 20 22 27 34 26 24 21 19 18 16 13 13 5 7 6 13 13 15 13 16 18 18 16 14 12 11 11
18 17 16 16 14 14 15 22 26 29 32 30 17 15 18 20 24 28 32 35 27 24 25 20 17 18 14 12 9 10 5 7 12 13 15 14 15 15 15 12 9 8 10
13 14 17 18 16 17 23 25 24 22 21 21 20 17 16 18 25 32 39 39 25 28 24 21 15 18 15 13 8 9 6 9 7 11 13 13 10 9 10 9 5 5 7
15 16 17 17 17 19 22 23 21 19 20 20 15 17 20 17 27 34 40 35 26 24 21 21 13 16 17 11 11 12 10 9 8 6 12 12 13 10 7 7 4 2 4
13 13 16 19 18 21 20 17 15 14 16 13 4 4 17 19 29 32 26 24 25 25 21 16 13 16 14 9 10 17 13 10 7 7 4 6 8 9 9 7 3 5 2
14 15 14 16 17 18 19 18 15 12 10 13 10 12 18 22 22 28 28 27 24 26 20 18 16 12 17 11 5 19 24 18 8 6 6 3 3 1 4 5 6 13 12
12 15 16 18 19 20 20 18 18 16 11 17 23 24 12 22 28 23 25 26 25 25 25 22 21 20 19 14 24 17 26 25 25 16 5 5 3 6 11 18 10 10 10
14 17 17 19 22 22 24 24 22 22 20 14 18 32 24 22 24 19 24 25 25 27 25 23 22 19 17 19 19 21 20 25 16 17 14 11 10 7 9 8 16 20 23
17 17 17 18 22 25 28 26 28 27 26 27 25 31 30 21 42 51 41 71 59 35 29 30 34 33 12 15 21 33 29 19 14 17 10 5 6 8 11 24 18 22 27
17 18 19 21 24 25 25 27 28 28 32 32 28 24 27 25 50 41 45 52 48 42 36 36 31 35 20 15 15 16 15 27 19 20 24 23 14 11 13 14 19 21 20
17 18 20 23 24 26 25 27 27 28 30 32 40 40 33 19 32 32 28 31 38 31 40 28 25 27 21 14 13 12 21 20 24 32 40 33 22 26 18 17 17 20 26
Wind_Direction
8 20 20 24 30 61 98 71 44 41 89 34 30 49 55 65 61 69 68 75 79 83 82 77 69 57 54 59 63 67 64 60 60 62 62 62 60 60 58 56 53 49 49
12 18 20 20 23 47 121 125 119 123 191 218 133 66 89 90 87 76 75 80 91 90 87 81 74 70 71 73 71 71 70 69 67 65 61 59 59 59 57 56 55 52 50
9 14 14 14 15 30 128 132 149 224 203 202 223 209 144 131 121 99 81 88 95 99 94 88 81 78 78 80 78 76 75 73 67 63 57 53 55 58 58 56 53 53 53
6 14 11 4 349 336 136 165 199 232 208 184 207 196 184 154 153 126 103 94 107 111 102 92 91 86 83 83 82 82 79 73 68 58 58 57 54 54 54 56 56 56 58
355 345 357 4 338 313 235 206 222 231 220 216 198 197 186 169 167 140 140 118 123 125 107 94 92 94 90 87 88 84 76 59 59 56 52 52 53 57 59 59 58 59 57
350 345 359 357 347 321 275 260 254 244 239 238 218 206 198 184 174 189 178 146 166 162 143 109 95 98 97 93 88 86 63 44 53 61 55 51 51 58 60 58 59 60 58
3 353 353 342 336 331 310 271 292 281 287 273 246 200 196 202 167 190 183 179 205 160 173 115 114 115 106 98 96 64 16 325 50 54 55 53 58 63 62 62 63 63 63
2 357 345 338 335 340 340 317 290 284 288 274 237 244 208 187 180 182 173 183 192 154 130 109 139 117 107 112 95 8 324 347 53 54 55 60 68 68 65 63 64 66 65
354 354 351 346 340 349 355 329 308 290 276 270 268 260 219 184 179 167 173 156 146 162 175 168 155 139 119 117 69 349 346 42 59 59 60 67 73 69 69 66 66 64 64
355 350 352 352 353 26 44 358 326 304 298 279 286 218 202 191 196 178 161 153 161 162 170 164 180 173 134 135 46 21 40 40 59 61 65 70 74 74 69 66 67 63 64
359 358 351 9 34 50 68 16 335 47 314 298 235 226 191 189 200 213 222 183 164 144 166 189 187 182 156 162 89 80 45 46 60 63 66 78 78 74 68 66 68 63 63
355 359 1 1 19 65 52 39 13 306 282 288 268 211 185 195 151 226 208 200 183 169 162 191 187 159 175 191 177 25 353 56 64 62 76 82 80 76 72 68 66 62 59
3 5 10 355 19 27 35 41 5 329 307 274 139 204 198 213 248 241 238 207 201 184 190 203 183 186 189 189 206 354 305 63 62 66 84 83 82 82 78 74 70 63 59
2 12 12 32 13 21 3 9 30 322 306 275 167 177 169 187 254 229 219 199 193 213 189 194 196 206 192 193 260 305 70 66 67 74 85 86 84 82 80 75 70 64 58
8 26 26 27 23 358 350 341 324 333 295 280 218 193 223 229 231 185 199 210 209 196 197 192 211 189 197 219 276 171 319 83 76 80 78 87 84 85 83 76 64 53 47
13 33 36 36 28 14 14 345 317 304 301 276 246 217 217 238 230 218 224 208 204 198 189 194 221 207 206 242 232 249 358 79 74 83 86 90 93 89 83 77 68 51 40
26 47 46 43 33 2 352 333 317 304 292 284 259 227 222 230 229 223 199 198 206 202 193 223 201 221 219 237 229 268 318 46 81 87 102 98 99 99 94 83 65 38 39
65 46 45 30 20 359 335 324 324 321 310 288 272 239 216 216 190 189 192 209 222 213 217 203 183 216 220 222 231 259 280 325 66 98 104 104 105 100 106 100 72 22 3
46 36 29 29 24 2 344 331 326 324 319 305 286 265 186 185 187 187 200 214 217 193 204 208 187 220 221 206 235 261 271 300 315 82 121 115 123 124 123 131 124 3 14
62 76 54 30 20 12 13 5 358 344 343 333 349 165 140 152 157 172 196 194 218 205 197 197 211 232 227 195 238 266 281 283 286 309 107 112 133 143 144 141 192 289 237
70 64 66 51 42 46 48 57 44 41 44 71 90 110 119 128 153 149 191 219 216 219 193 203 210 209 235 249 254 277 279 285 284 294 305 306 334 259 301 225 267 294 291
87 101 84 90 84 76 79 72 65 77 80 100 118 112 119 131 144 190 213 212 216 213 212 214 219 228 235 236 271 255 268 283 285 292 290 281 218 297 285 291 271 278 293
119 120 102 100 104 99 94 90 83 94 99 105 128 133 134 140 147 169 182 190 198 203 198 190 201 217 236 257 261 271 273 283 279 287 288 298 289 261 276 248 284 291 293
132 120 107 105 110 111 112 107 110 119 129 140 144 147 143 149 145 152 153 167 159 160 162 162 163 166 187 193 257 266 275 298 301 313 313 225 260 248 230 289 286 289 291
136 124 118 117 122 120 117 119 121 124 132 133 143 155 148 149 158 149 155 164 167 165 165 165 169 168 172 179 196 259 259 284 294 300 310 303 302 269 246 263 276 283 276
138 127 124 127 131 131 122 127 129 131 132 134 149 155 158 163 160 166 159 164 168 173 171 180 181 178 190 238 218 230 273 274 282 289 290 300 295 297 282 279 274 271 288